FW6381 Weather Reports


Display with metric or nautical units.
time (UTC)temp
F
wind
direction
speed
MPH
gust
MPH
rain 1hr
in
rain 24hr
in
rain mn
in
humidity
%
barometer
mb
20220707143507 75 69 3.0 11.0 0.00 0.00 0.00 59 1017.0
20220707143003 75 76 3.0 8.0 0.00 0.00 0.00 60 1017.0
20220707142503 75 57 3.0 10.0 0.00 0.00 0.00 60 1016.9
20220707142003 74 60 3.0 10.0 0.00 0.00 0.00 64 1016.9
20220707141504 74 72 3.0 9.0 0.00 0.00 0.00 64 1016.8
20220707141003 73 83 3.0 10.0 0.00 0.00 0.00 67 1016.9
20220707140503 73 80 3.0 10.0 0.00 0.00 0.00 67 1016.9
20220707140005 72 67 3.0 9.0 0.00 0.00 0.00 68 1017.0
20220707135504 72 83 3.0 9.0 0.00 0.00 0.00 68 1017.0
20220707135003 71 82 3.0 9.0 0.00 0.00 0.00 69 1017.1
20220707134506 71 74 3.0 10.0 0.00 0.00 0.00 69 1017.1
20220707134003 71 70 3.0 10.0 0.00 0.00 0.00 70 1017.2
20220707133503 70 70 3.0 8.0 0.00 0.00 0.00 71 1017.2
20220707133005 70 57 3.0 8.0 0.00 0.00 0.00 72 1017.3
20220707132504 70 48 3.0 4.0 0.00 0.00 0.00 71 1017.4
20220707132006 70 76 3.0 8.0 0.00 0.00 0.00 72 1017.3
20220707131505 70 52 3.0 8.0 0.00 0.00 0.00 72 1017.4
20220707131006 69 35 3.0 7.0 0.00 0.00 0.00 72 1017.5
20220707130504 69 51 3.0 8.0 0.00 0.00 0.00 72 1017.5
20220707130003 69 79 3.0 9.0 0.00 0.00 0.00 73 1017.5
20220707125503 68 91 3.0 9.0 0.00 0.00 0.00 74 1017.6
20220707125004 68 82 2.0 9.0 0.00 0.00 0.00 74 1017.6
20220707124503 68 68 2.0 9.0 0.00 0.00 0.00 75 1017.7
20220707124003 67 68 3.0 10.0 0.00 0.00 0.00 76 1017.7
20220707123505 67 79 2.0 10.0 0.00 0.00 0.00 78 1017.6
20220707123003 66 74 3.0 4.0 0.00 0.00 0.00 79 1017.6
20220707122505 66 68 3.0 4.0 0.00 0.00 0.00 80 1017.7
20220707122003 65 70 3.0 8.0 0.00 0.00 0.00 81 1017.7
20220707121504 64 78 3.0 9.0 0.00 0.00 0.00 83 1017.7
20220707121004 64 80 2.0 9.0 0.00 0.00 0.00 86 1017.7
20220707120503 63 80 1.0 8.0 0.00 0.00 0.00 89 1017.6
20220707120003 62 85 1.0 7.0 0.00 0.00 0.00 91 1017.6
20220707115503 61 85 1.0 4.0 0.00 0.00 0.00 93 1017.6
20220707115003 61 80 0.0 4.0 0.00 0.00 0.00 94 1017.6
20220707114505 60 75 0.0 3.0 0.00 0.00 0.00 95 1017.6
20220707114004 59 68 0.0 3.0 0.00 0.00 0.00 95 1017.5
20220707113506 59 0 0.0 0.0 0.00 0.00 0.00 94 1017.6
20220707113003 58 0 0.0 0.0 0.00 0.00 0.00 94 1017.6
20220707112503 58 0 0.0 0.0 0.00 0.00 0.00 94 1017.7
20220707112003 57 0 0.0 0.0 0.00 0.00 0.00 94 1017.7
20220707111504 57 0 0.0 0.0 0.00 0.00 0.00 94 1017.6
20220707111003 56 0 0.0 0.0 0.00 0.00 0.00 94 1017.7
20220707110503 56 0 0.0 0.0 0.00 0.00 0.00 94 1017.6
20220707110007 56 0 0.0 0.0 0.00 0.00 0.00 94 1017.6
20220707105504 55 0 0.0 0.0 0.00 0.00 0.00 93 1017.6
20220707105003 55 0 0.0 0.0 0.00 0.00 0.00 93 1017.6
20220707104503 55 0 0.0 0.0 0.00 0.00 0.00 93 1017.5
20220707104005 55 0 0.0 0.0 0.00 0.00 0.00 93 1017.6
20220707103504 55 0 0.0 0.0 0.00 0.00 0.00 93 1017.4
20220707103004 55 0 0.0 0.0 0.00 0.00 0.00 93 1017.4
20220707102504 55 0 0.0 0.0 0.00 0.00 0.00 93 1017.4
20220707102003 55 0 0.0 0.0 0.00 0.00 0.00 93 1017.2
20220707101503 55 0 0.0 0.0 0.00 0.00 0.00 93 1017.1
20220707101003 55 0 0.0 0.0 0.00 0.00 0.00 93 1017.1
20220707100504 55 0 0.0 0.0 0.00 0.00 0.00 93 1017.0
20220707100005 55 0 0.0 0.0 0.00 0.00 0.00 93 1016.9
20220707095503 55 0 0.0 0.0 0.00 0.00 0.00 93 1017.0
20220707095005 55 0 0.0 0.0 0.00 0.00 0.00 91 1017.0
20220707094504 55 0 0.0 0.0 0.00 0.00 0.00 91 1016.8
20220707094003 55 0 0.0 0.0 0.00 0.00 0.00 91 1016.8
20220707093504 55 0 0.0 0.0 0.00 0.00 0.00 91 1016.7
20220707093004 55 0 0.0 0.0 0.00 0.00 0.00 91 1016.7
20220707092503 55 0 0.0 0.0 0.00 0.00 0.00 91 1016.7
20220707092003 55 0 0.0 0.0 0.00 0.00 0.00 91 1016.7
20220707091503 55 0 0.0 0.0 0.00 0.00 0.00 90 1016.7
20220707091005 55 0 0.0 0.0 0.00 0.00 0.00 90 1016.7
20220707090503 55 0 0.0 0.0 0.00 0.00 0.00 90 1016.7
20220707090003 55 0 0.0 0.0 0.00 0.00 0.00 90 1016.6
20220707085503 55 0 0.0 0.0 0.00 0.00 0.00 90 1016.7
20220707085004 55 0 0.0 0.0 0.00 0.00 0.00 90 1016.6
20220707084503 55 0 0.0 0.0 0.00 0.00 0.00 90 1016.5
20220707084005 56 0 0.0 0.0 0.00 0.00 0.00 90 1016.5
20220707083503 56 0 0.0 0.0 0.00 0.00 0.00 90 1016.5
20220707083003 56 0 0.0 0.0 0.00 0.00 0.00 90 1016.5
20220707082503 56 0 0.0 0.0 0.00 0.00 0.00 90 1016.5
20220707082004 56 0 0.0 0.0 0.00 0.00 0.00 90 1016.4
20220707081504 56 0 0.0 0.0 0.00 0.00 0.00 89 1016.4
20220707081005 56 0 0.0 0.0 0.00 0.00 0.00 89 1016.4
20220707080503 56 0 0.0 0.0 0.00 0.00 0.00 89 1016.3
20220707080003 56 0 0.0 0.0 0.00 0.00 0.00 89 1016.4
20220707075504 56 0 0.0 0.0 0.00 0.00 0.00 89 1016.3
20220707075003 56 0 0.0 0.0 0.00 0.00 0.00 90 1016.4
20220707074503 56 0 0.0 0.0 0.00 0.00 0.00 89 1016.4
20220707074004 57 0 0.0 0.0 0.00 0.00 0.00 89 1016.3
20220707073503 57 0 0.0 0.0 0.00 0.00 0.00 89 1016.4
20220707073004 57 0 0.0 0.0 0.00 0.00 0.00 89 1016.5
20220707072503 57 0 0.0 0.0 0.00 0.00 0.00 90 1016.4
20220707072003 57 0 0.0 0.0 0.00 0.00 0.00 90 1016.4
20220707071504 57 0 0.0 0.0 0.00 0.00 0.00 90 1016.4
20220707071004 57 0 0.0 0.0 0.00 0.00 0.00 90 1016.4
20220707070503 57 0 0.0 0.0 0.00 0.00 0.00 90 1016.4
20220707070003 58 0 0.0 0.0 0.00 0.00 0.00 90 1016.4
20220707065503 58 0 0.0 0.0 0.00 0.00 0.00 90 1016.3
20220707065003 58 0 0.0 0.0 0.00 0.00 0.00 90 1016.4
20220707064503 58 0 0.0 0.0 0.00 0.00 0.00 89 1016.4
20220707064003 58 0 0.0 0.0 0.00 0.00 0.00 89 1016.4
20220707063503 58 0 0.0 0.0 0.00 0.00 0.00 89 1016.4
20220707063003 58 0 0.0 0.0 0.00 0.00 0.00 89 1016.4
20220707062507 58 0 0.0 0.0 0.00 0.00 0.00 89 1016.4
20220707062003 58 0 0.0 0.0 0.00 0.00 0.00 89 1016.4
20220707061503 58 0 0.0 0.0 0.00 0.00 0.00 89 1016.3
20220707061003 58 0 0.0 0.0 0.00 0.00 0.00 89 1016.4
20220707060508 58 0 0.0 0.0 0.00 0.00 0.00 88 1016.4
20220707060005 58 0 0.0 0.0 0.00 0.00 0.00 88 1016.4
20220707055503 58 0 0.0 0.0 0.00 0.00 0.00 88 1016.4
20220707055004 58 0 0.0 0.0 0.00 0.00 0.00 88 1016.4
20220707054504 58 0 0.0 0.0 0.00 0.00 0.00 88 1016.3
20220707054003 59 0 0.0 0.0 0.00 0.00 0.00 88 1016.4
20220707053507 59 0 0.0 0.0 0.00 0.00 0.00 87 1016.4
20220707053004 59 0 0.0 0.0 0.00 0.00 0.00 87 1016.5
20220707052503 59 0 0.0 0.0 0.00 0.00 0.00 87 1016.5
20220707052005 59 0 0.0 0.0 0.00 0.00 0.00 86 1016.5
20220707051505 59 0 0.0 0.0 0.00 0.00 0.00 86 1016.6
20220707051005 59 0 0.0 0.0 0.00 0.00 0.00 86 1016.7
20220707050503 60 0 0.0 0.0 0.00 0.00 0.00 85 1016.7
20220707050003 60 0 0.0 0.0 0.00 0.00 0.00 84 1016.6
20220707045503 60 0 0.0 0.0 0.00 0.00 0.00 84 1016.7
20220707045003 60 0 0.0 0.0 0.00 0.00 0.00 84 1016.8
20220707044503 60 0 0.0 0.0 0.00 0.00 0.00 84 1016.7
20220707044004 60 0 0.0 0.0 0.00 0.00 0.00 84 1016.7
20220707043503 60 0 0.0 0.0 0.00 0.00 0.00 83 1016.7
20220707043003 61 0 0.0 0.0 0.00 0.00 0.00 83 1016.7
20220707042503 61 0 0.0 0.0 0.00 0.00 0.00 83 1016.7
20220707042003 61 0 0.0 0.0 0.00 0.00 0.00 82 1016.7
20220707041503 61 0 0.0 0.0 0.00 0.00 0.00 82 1016.7
20220707041003 61 0 0.0 0.0 0.00 0.00 0.00 82 1016.7
20220707040503 62 0 0.0 0.0 0.00 0.00 0.00 82 1016.6
20220707040003 62 0 0.0 0.0 0.00 0.00 0.00 82 1016.6
20220707035504 62 0 0.0 0.0 0.00 0.00 0.00 80 1016.7
20220707035005 62 0 0.0 0.0 0.00 0.00 0.00 80 1016.6
20220707034503 62 0 0.0 0.0 0.00 0.00 0.00 80 1016.6
20220707034003 63 0 0.0 0.0 0.00 0.00 0.00 79 1016.6
20220707033505 63 0 0.0 0.0 0.00 0.00 0.00 79 1016.6
20220707033003 63 0 0.0 0.0 0.00 0.00 0.00 78 1016.6
20220707032505 63 0 0.0 0.0 0.00 0.00 0.00 78 1016.6
20220707032004 63 0 0.0 0.0 0.00 0.00 0.00 76 1016.5
20220707031505 64 0 0.0 0.0 0.00 0.00 0.00 76 1016.5
20220707031006 64 0 0.0 0.0 0.00 0.00 0.00 76 1016.5
20220707030503 64 0 0.0 0.0 0.00 0.00 0.00 76 1016.5
20220707030003 64 0 0.0 0.0 0.00 0.00 0.00 75 1016.4
20220707025503 65 0 0.0 0.0 0.00 0.00 0.00 75 1016.6
20220707025003 65 0 0.0 0.0 0.00 0.00 0.00 74 1016.7
20220707024503 65 0 0.0 0.0 0.00 0.00 0.00 74 1016.7
20220707024003 65 0 0.0 0.0 0.00 0.00 0.00 73 1016.7
20220707023504 66 0 0.0 0.0 0.00 0.00 0.00 73 1016.6
20220707023003 66 0 0.0 0.0 0.00 0.00 0.00 73 1016.6
20220707022503 66 0 0.0 0.0 0.00 0.00 0.00 72 1016.6
20220707022004 66 0 0.0 0.0 0.00 0.00 0.00 72 1016.4
20220707021504 66 0 0.0 0.0 0.00 0.00 0.00 72 1016.4
20220707021004 67 67 0.0 1.0 0.00 0.00 0.00 71 1016.4
20220707020503 67 67 0.0 1.0 0.00 0.00 0.00 71 1016.3
20220707020006 67 67 0.0 1.0 0.00 0.00 0.00 70 1016.4
20220707015503 68 67 0.0 0.0 0.00 0.00 0.00 69 1016.3
20220707015006 68 67 0.0 2.0 0.00 0.00 0.00 69 1016.3
20220707014503 68 67 0.0 2.0 0.00 0.00 0.00 69 1016.2
20220707014004 68 67 1.0 1.0 0.00 0.00 0.00 69 1016.0
20220707013503 68 67 0.0 2.0 0.00 0.00 0.00 68 1015.8
20220707013004 69 67 1.0 3.0 0.00 0.00 0.00 68 1015.8
20220707012505 69 67 1.0 3.0 0.00 0.00 0.00 68 1015.6
20220707012004 69 67 1.0 3.0 0.00 0.00 0.00 68 1015.6
20220707011503 70 71 1.0 4.0 0.00 0.00 0.00 67 1015.5
20220707011003 70 81 1.0 4.0 0.00 0.00 0.00 67 1015.5
20220707010503 70 78 1.0 4.0 0.00 0.00 0.00 66 1015.4
20220707010004 70 68 0.0 4.0 0.00 0.00 0.00 66 1015.3
20220707005505 71 65 0.0 2.0 0.00 0.00 0.00 65 1015.2
20220707005005 71 65 1.0 1.0 0.00 0.00 0.00 65 1015.2
20220707004504 71 65 1.0 4.0 0.00 0.00 0.00 64 1015.2
20220707004003 72 66 1.0 4.0 0.00 0.00 0.00 64 1015.4
20220707003507 72 67 1.0 3.0 0.00 0.00 0.00 64 1015.4
20220707003007 72 73 1.0 4.0 0.00 0.00 0.00 64 1015.4
20220707002506 72 76 2.0 3.0 0.00 0.00 0.00 64 1015.6
20220707002006 72 64 2.0 4.0 0.00 0.00 0.00 64 1015.6
20220707001503 72 51 2.0 6.0 0.00 0.00 0.00 64 1015.6
20220707001003 72 42 2.0 6.0 0.00 0.00 0.00 64 1015.6
20220707000505 72 42 3.0 4.0 0.00 0.00 0.00 64 1015.6
20220707000003 72 46 3.0 8.0 0.00 0.00 0.00 63 1015.6
20220706235503 72 42 3.0 8.0 0.00 0.00 0.00 63 1015.5
20220706235004 72 44 3.0 8.0 0.00 0.00 0.00 63 1015.4
20220706234503 73 53 3.0 8.0 0.00 0.00 0.00 63 1015.4
20220706234004 73 37 3.0 8.0 0.00 0.00 0.00 63 1015.4
20220706233503 73 5 3.0 7.0 0.00 0.00 0.00 63 1015.3
20220706233005 73 12 3.0 6.0 0.00 0.00 0.00 64 1015.5
20220706232503 73 19 3.0 8.0 0.00 0.00 0.00 63 1015.5
20220706232003 73 16 3.0 7.0 0.00 0.00 0.00 64 1015.4
20220706231503 73 14 3.0 7.0 0.00 0.00 0.00 63 1015.4
20220706231004 73 16 3.0 7.0 0.00 0.00 0.00 64 1015.3
20220706230503 73 48 3.0 8.0 0.00 0.00 0.00 65 1015.1
20220706230004 73 53 3.0 8.0 0.00 0.00 0.00 66 1015.1
20220706225503 72 29 3.0 7.0 0.00 0.00 0.00 65 1015.1
20220706225003 72 28 3.0 9.0 0.00 0.00 0.00 66 1015.1
20220706224504 72 34 3.0 9.0 0.00 0.00 0.00 66 1015.1
20220706224003 72 19 3.0 7.0 0.00 0.00 0.00 66 1015.1
20220706223506 73 23 3.0 8.0 0.00 0.00 0.00 66 1015.1
20220706223005 73 33 3.0 8.0 0.00 0.00 0.00 66 1015.0
20220706222503 73 34 3.0 10.0 0.00 0.00 0.00 65 1014.9
20220706222003 73 31 3.0 10.0 0.00 0.00 0.00 65 1014.9
20220706221503 74 33 3.0 9.0 0.00 0.00 0.00 65 1014.9
20220706221003 73 38 3.0 9.0 0.00 0.00 0.00 66 1014.9
20220706220504 73 37 3.0 10.0 0.00 0.00 0.00 66 1014.9
20220706220004 73 20 3.0 9.0 0.00 0.00 0.00 66 1014.8
20220706215503 73 18 3.0 10.0 0.00 0.00 0.00 67 1014.9
20220706215007 73 33 3.0 10.0 0.00 0.00 0.00 67 1014.9
20220706214504 73 23 4.0 12.0 0.00 0.00 0.00 67 1014.9
20220706214005 73 36 4.0 12.0 0.00 0.00 0.00 65 1015.0
20220706213504 73 69 4.0 12.0 0.00 0.00 0.00 66 1015.0
20220706213003 73 58 3.0 12.0 0.00 0.00 0.00 65 1014.9
20220706212505 74 33 3.0 9.0 0.00 0.00 0.00 65 1014.9
20220706212005 74 38 3.0 9.0 0.00 0.00 0.00 65 1014.9
20220706211505 74 7 3.0 9.0 0.00 0.00 0.00 66 1014.8
20220706211003 73 355 3.0 9.0 0.00 0.00 0.00 66 1014.8
20220706210505 73 24 3.0 7.0 0.00 0.00 0.00 67 1014.8
20220706210003 73 26 4.0 7.0 0.00 0.00 0.00 66 1014.9
20220706205503 73 44 4.0 9.0 0.00 0.00 0.00 66 1015.0
20220706205003 74 46 4.0 10.0 0.00 0.00 0.00 66 1014.9
20220706204503 74 38 4.0 10.0 0.00 0.00 0.00 65 1015.0
20220706204005 74 46 3.0 10.0 0.00 0.00 0.00 68 1014.9
20220706203505 74 47 3.0 12.0 0.00 0.00 0.00 67 1014.9
20220706203004 73 45 3.0 12.0 0.00 0.00 0.00 69 1014.9
20220706202504 73 38 4.0 8.0 0.00 0.00 0.00 69 1015.1
20220706202007 73 45 3.0 9.0 0.00 0.00 0.00 67 1015.2
20220706201504 73 65 3.0 12.0 0.00 0.00 0.00 68 1015.2
20220706201003 73 62 4.0 12.0 0.00 0.00 0.00 69 1015.3
20220706200503 73 34 4.0 8.0 0.00 0.00 0.00 67 1015.3
20220706200003 73 36 4.0 13.0 0.00 0.00 0.00 68 1015.4
20220706195505 73 27 4.0 13.0 0.00 0.00 0.00 68 1015.3
20220706195003 73 24 4.0 11.0 0.00 0.00 0.00 68 1015.3
20220706194503 73 47 4.0 11.0 0.00 0.00 0.00 68 1015.3
20220706194003 73 52 4.0 9.0 0.00 0.00 0.00 68 1015.4
20220706193503 74 9 4.0 7.0 0.00 0.00 0.00 67 1015.4
20220706193004 74 5 4.0 10.0 0.00 0.00 0.00 68 1015.4
20220706192506 74 14 4.0 10.0 0.00 0.00 0.00 69 1015.3
20220706192003 74 32 4.0 14.0 0.00 0.00 0.00 70 1015.3
20220706191503 73 53 4.0 14.0 0.00 0.00 0.00 72 1015.4
20220706191004 73 52 4.0 12.0 0.00 0.00 0.00 70 1015.4
20220706190504 73 46 4.0 10.0 0.00 0.00 0.00 73 1015.4
20220706190003 72 62 4.0 11.0 0.00 0.00 0.00 72 1015.4
20220706185506 72 47 4.0 11.0 0.00 0.00 0.00 72 1015.4
20220706185003 72 36 4.0 11.0 0.00 0.00 0.00 72 1015.4
20220706184504 72 34 4.0 8.0 0.00 0.00 0.00 74 1015.4
20220706184003 72 27 4.0 9.0 0.00 0.00 0.00 74 1015.2
20220706183504 72 34 4.0 13.0 0.00 0.00 0.00 73 1015.2
20220706183003 72 30 4.0 13.0 0.00 0.00 0.00 73 1015.2
20220706182503 72 21 4.0 10.0 0.00 0.00 0.00 73 1015.1
20220706182003 72 18 4.0 10.0 0.00 0.00 0.00 73 1015.1
20220706181504 72 25 4.0 11.0 0.00 0.00 0.00 74 1015.1
20220706181005 71 33 4.0 11.0 0.00 0.00 0.00 73 1015.2
20220706180505 72 34 4.0 9.0 0.00 0.00 0.00 73 1015.2
20220706180004 72 35 4.0 14.0 0.00 0.00 0.00 73 1015.2
20220706175505 72 30 4.0 14.0 0.00 0.00 0.00 73 1015.2
20220706175003 72 36 3.0 10.0 0.00 0.00 0.00 73 1015.2
20220706174503 72 43 3.0 10.0 0.00 0.00 0.00 75 1015.2
20220706174005 71 14 3.0 9.0 0.00 0.00 0.00 74 1015.4
20220706173505 72 10 3.0 8.0 0.00 0.00 0.00 74 1015.4
20220706173004 72 44 4.0 8.0 0.00 0.00 0.00 75 1015.3
20220706172503 72 49 4.0 12.0 0.00 0.00 0.00 75 1015.4
20220706172003 71 35 4.0 12.0 0.00 0.00 0.00 75 1015.4
20220706171503 71 30 4.0 14.0 0.00 0.00 0.00 75 1015.4
20220706171003 71 39 4.0 14.0 0.00 0.00 0.00 74 1015.4
20220706170505 72 58 3.0 12.0 0.00 0.00 0.00 75 1015.2
20220706170003 72 57 3.0 11.0 0.00 0.00 0.00 75 1015.3
20220706165505 71 4 3.0 11.0 0.00 0.00 0.00 76 1015.2
20220706165005 71 345 3.0 9.0 0.00 0.00 0.00 76 1015.2
20220706164503 71 360 3.0 9.0 0.00 0.00 0.00 75 1015.2
20220706164003 72 10 3.0 8.0 0.00 0.00 0.00 76 1015.1
20220706163504 72 21 4.0 7.0 0.00 0.00 0.00 76 1015.0
20220706163007 72 50 4.0 10.0 0.00 0.00 0.00 76 1015.0
20220706162503 71 30 4.0 10.0 0.00 0.00 0.00 78 1015.0
20220706162006 71 10 3.0 9.0 0.00 0.00 0.00 78 1015.0
20220706161503 71 18 3.0 10.0 0.00 0.00 0.00 78 1014.9
20220706161004 71 7 3.0 10.0 0.00 0.00 0.00 75 1015.0
20220706160503 72 353 3.0 6.0 0.00 0.00 0.00 75 1014.9
20220706160004 71 338 4.0 11.0 0.00 0.00 0.00 76 1014.9
20220706155505 71 330 4.0 11.0 0.00 0.00 0.00 76 1015.0
20220706155004 71 338 4.0 10.0 0.00 0.00 0.00 76 1014.9
20220706154503 71 343 4.0 10.0 0.00 0.01 0.00 75 1014.9
20220706154003 71 332 4.0 10.0 0.00 0.01 0.00 76 1014.7
20220706153504 71 321 4.0 10.0 0.00 0.01 0.00 75 1014.7
20220706153003 70 337 4.0 10.0 0.00 0.01 0.00 76 1014.7
20220706152504 70 18 4.0 10.0 0.00 0.03 0.00 75 1014.6
20220706152003 70 12 4.0 10.0 0.00 0.03 0.00 78 1014.8
20220706151503 70 332 4.0 9.0 0.00 0.03 0.00 78 1014.7
20220706151004 70 313 3.0 9.0 0.00 0.03 0.00 78 1014.9
20220706150505 70 314 3.0 11.0 0.00 0.03 0.00 78 1015.0
20220706150003 70 323 3.0 11.0 0.00 0.03 0.00 76 1014.9
20220706145505 70 331 3.0 8.0 0.00 0.03 0.00 78 1014.7
20220706145003 70 335 3.0 10.0 0.00 0.03 0.00 78 1014.9
20220706144504 70 344 2.0 10.0 0.00 0.03 0.00 78 1014.8
20220706144003 70 350 3.0 6.0 0.00 0.03 0.00 80 1014.6